Time,TemperatureF,DewpointF,PressureIn,WindDirection,WindDirectionDegrees,WindSpeedMPH,WindSpeedGustMPH,Humidity,HourlyPrecipIn,Conditions,Clouds,dailyrainin,SoftwareType,DateUTC
2013-04-05 00:00:00,41.3,32.0,30.12,SSW,202,8.2,12.1,69,0.00,,,0.00,Rainwise IP-100,2013-04-05 04:00:00,
2013-04-05 00:01:00,41.4,32.0,30.11,South,180,9.1,11.2,69,0.00,,,0.00,Rainwise IP-100,2013-04-05 04:01:00,
2013-04-05 00:04:00,41.3,32.0,30.12,South,180,9.3,11.7,68,0.00,,,0.00,Rainwise IP-100,2013-04-05 04:04:00,
2013-04-05 00:06:00,41.4,32.0,30.11,South,180,10.0,12.6,68,0.00,,,0.00,Rainwise IP-100,2013-04-05 04:06:00,
2013-04-05 00:09:00,41.4,32.0,30.11,SSW,202,7.5,13.3,68,0.00,,,0.00,Rainwise IP-100,2013-04-05 04:09:00,
2013-04-05 00:11:00,41.4,32.0,30.11,SSW,202,9.6,13.3,68,0.00,,,0.00,Rainwise IP-100,2013-04-05 04:11:00,
2013-04-05 00:14:00,41.4,31.0,30.11,South,180,8.6,13.1,67,0.00,,,0.00,Rainwise IP-100,2013-04-05 04:14:00,
2013-04-05 00:16:00,41.4,31.0,30.11,SSW,202,6.5,13.1,67,0.00,,,0.00,Rainwise IP-100,2013-04-05 04:16:00,
2013-04-05 00:21:00,41.4,31.0,30.10,SSW,202,10.5,11.9,67,0.00,,,0.00,Rainwise IP-100,2013-04-05 04:21:00,
2013-04-05 00:24:00,41.3,31.0,30.10,South,180,6.5,11.9,66,0.00,,,0.00,Rainwise IP-100,2013-04-05 04:24:00,
2013-04-05 00:26:00,41.3,31.0,30.11,SSW,202,7.0,11.7,66,0.00,,,0.00,Rainwise IP-100,2013-04-05 04:26:00,
2013-04-05 00:29:00,41.3,31.0,30.10,South,180,6.3,11.7,66,0.00,,,0.00,Rainwise IP-100,2013-04-05 04:29:00,
2013-04-05 00:34:00,41.3,31.0,30.10,SSW,202,7.2,10.3,65,0.00,,,0.00,Rainwise IP-100,2013-04-05 04:34:00,
2013-04-05 00:36:00,41.3,31.0,30.10,SSW,202,9.6,11.2,65,0.00,,,0.00,Rainwise IP-100,2013-04-05 04:36:00,
2013-04-05 00:41:00,41.3,31.0,30.10,South,180,5.6,11.9,64,0.00,,,0.00,Rainwise IP-100,2013-04-05 04:41:00,
2013-04-05 00:46:00,41.4,29.0,30.10,South,180,10.5,11.9,63,0.00,,,0.00,Rainwise IP-100,2013-04-05 04:46:00,
2013-04-05 00:51:00,41.4,29.0,30.10,South,180,7.5,14.0,63,0.00,,,0.00,Rainwise IP-100,2013-04-05 04:51:00,
2013-04-05 00:57:00,41.3,31.0,30.10,South,180,7.0,10.0,64,0.00,,,0.00,Rainwise IP-100,2013-04-05 04:57:00,
2013-04-05 01:01:00,41.3,31.0,30.09,South,180,7.0,11.0,64,0.00,,,0.00,Rainwise IP-100,2013-04-05 05:01:00,
2013-04-05 01:06:00,41.3,31.0,30.09,South,180,8.4,11.9,64,0.00,,,0.00,Rainwise IP-100,2013-04-05 05:06:00,
2013-04-05 01:09:00,41.2,29.0,30.09,SSE,157,10.5,11.9,63,0.00,,,0.00,Rainwise IP-100,2013-04-05 05:09:00,
2013-04-05 01:11:00,41.2,29.0,30.09,SSW,202,9.3,11.9,62,0.00,,,0.00,Rainwise IP-100,2013-04-05 05:11:00,
2013-04-05 01:14:00,41.2,29.0,30.09,SSW,202,6.3,11.9,61,0.00,,,0.00,Rainwise IP-100,2013-04-05 05:14:00,
2013-04-05 01:16:00,41.2,29.0,30.09,SSW,202,8.4,11.0,61,0.00,,,0.00,Rainwise IP-100,2013-04-05 05:16:00,
2013-04-05 01:21:00,41.2,28.0,30.09,SW,225,8.2,12.4,59,0.00,,,0.00,Rainwise IP-100,2013-04-05 05:21:00,
2013-04-05 01:26:00,41.1,28.0,30.09,SSW,202,4.4,9.8,58,0.00,,,0.00,Rainwise IP-100,2013-04-05 05:26:00,
2013-04-05 01:29:00,41.0,28.0,30.09,SSW,202,5.4,11.0,57,0.00,,,0.00,Rainwise IP-100,2013-04-05 05:29:00,
2013-04-05 01:34:00,41.0,28.0,30.09,SW,225,7.9,13.5,57,0.00,,,0.00,Rainwise IP-100,2013-04-05 05:34:00,
2013-04-05 01:36:00,41.0,28.0,30.09,South,180,7.2,13.5,57,0.00,,,0.00,Rainwise IP-100,2013-04-05 05:36:00,
2013-04-05 01:41:00,41.0,28.0,30.08,SSW,202,9.6,12.8,56,0.00,,,0.00,Rainwise IP-100,2013-04-05 05:41:00,
2013-04-05 01:46:00,41.0,28.0,30.08,South,180,9.6,14.7,56,0.00,,,0.00,Rainwise IP-100,2013-04-05 05:46:00,
2013-04-05 01:51:00,41.0,28.0,30.08,South,180,7.2,14.0,56,0.00,,,0.00,Rainwise IP-100,2013-04-05 05:51:00,
2013-04-05 01:57:00,40.9,28.0,30.08,South,180,10.7,12.4,58,0.00,,,0.00,Rainwise IP-100,2013-04-05 05:57:00,
2013-04-05 02:01:00,40.9,28.0,30.09,South,180,9.6,17.0,59,0.00,,,0.00,Rainwise IP-100,2013-04-05 06:01:00,
2013-04-05 02:04:00,40.9,28.0,30.08,South,180,11.2,14.7,59,0.00,,,0.00,Rainwise IP-100,2013-04-05 06:04:00,
2013-04-05 02:09:00,40.9,29.0,30.08,South,180,11.9,15.2,60,0.00,,,0.00,Rainwise IP-100,2013-04-05 06:09:00,
2013-04-05 02:10:00,40.9,29.0,30.08,South,180,14.0,15.2,60,0.00,,,0.00,Rainwise IP-100,2013-04-05 06:10:00,
2013-04-05 02:15:00,40.8,29.0,30.08,South,180,8.9,16.1,61,0.00,,,0.00,Rainwise IP-100,2013-04-05 06:15:00,
2013-04-05 02:16:00,40.8,29.0,30.07,SSW,202,8.4,14.0,61,0.00,,,0.00,Rainwise IP-100,2013-04-05 06:16:00,
2013-04-05 02:21:00,40.8,29.0,30.07,SSW,202,9.3,14.9,61,0.00,,,0.00,Rainwise IP-100,2013-04-05 06:21:00,
2013-04-05 02:24:00,40.7,29.0,30.07,South,180,9.3,14.9,62,0.00,,,0.00,Rainwise IP-100,2013-04-05 06:24:00,
2013-04-05 02:27:00,40.7,29.0,30.06,SSW,202,10.5,16.1,62,0.00,,,0.00,Rainwise IP-100,2013-04-05 06:27:00,
2013-04-05 02:31:00,40.6,29.0,30.06,SSW,202,9.8,14.0,63,0.00,,,0.00,Rainwise IP-100,2013-04-05 06:31:00,
2013-04-05 02:34:00,40.6,29.0,30.06,SSW,202,12.1,14.2,63,0.00,,,0.00,Rainwise IP-100,2013-04-05 06:34:00,
2013-04-05 02:39:00,40.6,31.0,30.05,SSW,202,8.4,16.3,64,0.00,,,0.00,Rainwise IP-100,2013-04-05 06:39:00,
2013-04-05 02:44:00,40.5,31.0,30.05,SW,225,8.6,14.7,65,0.00,,,0.00,Rainwise IP-100,2013-04-05 06:44:00,
2013-04-05 02:47:00,40.5,31.0,30.05,South,180,8.6,13.5,66,0.00,,,0.00,Rainwise IP-100,2013-04-05 06:47:00,
2013-04-05 02:49:00,40.4,31.0,30.05,South,180,8.9,12.6,66,0.00,,,0.00,Rainwise IP-100,2013-04-05 06:49:00,
2013-04-05 02:51:00,40.4,31.0,30.05,SW,225,8.4,11.0,67,0.00,,,0.00,Rainwise IP-100,2013-04-05 06:51:00,
2013-04-05 02:54:00,40.4,31.0,30.06,SSW,202,7.5,11.0,67,0.00,,,0.00,Rainwise IP-100,2013-04-05 06:54:00,
2013-04-05 02:59:00,40.3,31.0,30.06,SSW,202,5.4,10.7,68,0.00,,,0.00,Rainwise IP-100,2013-04-05 06:59:00,
2013-04-05 03:04:00,40.3,31.0,30.05,South,180,8.2,14.0,69,0.00,,,0.00,Rainwise IP-100,2013-04-05 07:04:00,
2013-04-05 03:06:00,40.3,32.0,30.05,SW,225,8.2,14.0,70,0.00,,,0.00,Rainwise IP-100,2013-04-05 07:06:00,
2013-04-05 03:09:00,40.3,32.0,30.06,SSW,202,7.9,10.0,70,0.00,,,0.00,Rainwise IP-100,2013-04-05 07:09:00,
2013-04-05 03:14:00,40.2,32.0,30.05,South,180,6.5,10.0,71,0.00,,,0.00,Rainwise IP-100,2013-04-05 07:14:00,
2013-04-05 03:19:00,40.2,32.0,30.06,SSW,202,5.4,11.7,70,0.00,,,0.00,Rainwise IP-100,2013-04-05 07:19:00,
2013-04-05 03:24:00,40.3,31.0,30.05,SSW,202,6.3,8.2,69,0.00,,,0.00,Rainwise IP-100,2013-04-05 07:24:00,
2013-04-05 03:26:00,40.3,31.0,30.06,SSW,202,7.9,8.2,69,0.00,,,0.00,Rainwise IP-100,2013-04-05 07:26:00,
2013-04-05 03:31:00,40.4,31.0,30.05,SSW,202,6.3,9.3,68,0.00,,,0.00,Rainwise IP-100,2013-04-05 07:31:00,
2013-04-05 03:34:00,40.4,31.0,30.04,SSW,202,5.1,8.4,68,0.00,,,0.00,Rainwise IP-100,2013-04-05 07:34:00,
2013-04-05 03:36:00,40.5,32.0,30.05,South,180,5.4,8.4,68,0.00,,,0.00,Rainwise IP-100,2013-04-05 07:36:00,
2013-04-05 03:39:00,40.5,32.0,30.05,South,180,7.7,7.7,68,0.00,,,0.00,Rainwise IP-100,2013-04-05 07:39:00,
2013-04-05 03:44:00,40.5,32.0,30.04,SSW,202,5.6,9.3,68,0.00,,,0.00,Rainwise IP-100,2013-04-05 07:44:00,
2013-04-05 03:49:00,40.5,32.0,30.04,SSW,202,7.0,8.9,68,0.00,,,0.00,Rainwise IP-100,2013-04-05 07:49:00,
2013-04-05 03:55:00,40.5,32.0,30.03,South,180,6.8,10.5,69,0.00,,,0.00,Rainwise IP-100,2013-04-05 07:55:00,
2013-04-05 04:00:00,40.5,33.0,30.02,South,180,5.6,8.4,72,0.00,,,0.00,Rainwise IP-100,2013-04-05 08:00:00,
2013-04-05 04:05:00,40.4,33.0,30.02,South,180,6.1,11.7,74,0.00,,,0.00,Rainwise IP-100,2013-04-05 08:05:00,
2013-04-05 04:09:00,40.2,33.0,30.02,South,180,7.7,8.9,75,0.00,,,0.00,Rainwise IP-100,2013-04-05 08:09:00,
2013-04-05 04:11:00,40.2,33.0,30.02,SSW,202,4.7,8.9,75,0.00,,,0.00,Rainwise IP-100,2013-04-05 08:11:00,
2013-04-05 04:16:00,40.1,33.0,30.02,SSW,202,3.0,7.0,75,0.00,,,0.00,Rainwise IP-100,2013-04-05 08:16:00,
2013-04-05 04:19:00,40.1,33.0,30.02,South,180,7.7,7.7,74,0.00,,,0.00,Rainwise IP-100,2013-04-05 08:19:00,
2013-04-05 04:24:00,40.1,33.0,30.02,SSW,202,5.6,8.4,74,0.00,,,0.00,Rainwise IP-100,2013-04-05 08:24:00,
2013-04-05 04:29:00,40.0,33.0,30.02,South,180,4.0,6.5,75,0.00,,,0.00,Rainwise IP-100,2013-04-05 08:29:00,
2013-04-05 04:32:00,40.0,33.0,30.02,South,180,5.6,8.4,75,0.00,,,0.00,Rainwise IP-100,2013-04-05 08:32:00,
2013-04-05 04:34:00,40.0,33.0,30.02,South,180,4.4,8.4,75,0.00,,,0.00,Rainwise IP-100,2013-04-05 08:34:00,
2013-04-05 04:37:00,40.0,33.0,30.02,South,180,5.1,8.2,74,0.00,,,0.00,Rainwise IP-100,2013-04-05 08:37:00,
2013-04-05 04:39:00,40.1,33.0,30.02,South,180,5.1,7.5,74,0.00,,,0.00,Rainwise IP-100,2013-04-05 08:39:00,
2013-04-05 04:44:00,40.1,33.0,30.01,SSW,202,5.8,8.4,74,0.00,,,0.00,Rainwise IP-100,2013-04-05 08:44:00,
2013-04-05 04:49:00,40.2,33.0,30.01,SSW,202,6.1,7.7,74,0.00,,,0.00,Rainwise IP-100,2013-04-05 08:49:00,
2013-04-05 04:54:00,40.2,33.0,30.01,South,180,6.5,8.6,74,0.00,,,0.00,Rainwise IP-100,2013-04-05 08:54:00,
2013-04-05 04:59:00,40.3,33.0,30.00,South,180,8.2,8.6,74,0.00,,,0.00,Rainwise IP-100,2013-04-05 08:59:00,
2013-04-05 05:01:00,40.4,32.0,30.00,South,180,7.7,8.9,73,0.00,,,0.00,Rainwise IP-100,2013-04-05 09:01:00,
2013-04-05 05:05:00,40.4,32.0,30.00,SSW,202,7.5,8.9,73,0.00,,,0.00,Rainwise IP-100,2013-04-05 09:05:00,
2013-04-05 05:10:00,40.4,32.0,30.01,SSW,202,2.8,9.8,73,0.00,,,0.00,Rainwise IP-100,2013-04-05 09:10:00,
2013-04-05 05:11:00,40.4,32.0,30.01,South,180,5.4,7.2,73,0.00,,,0.00,Rainwise IP-100,2013-04-05 09:11:00,
2013-04-05 05:15:00,40.4,32.0,30.01,SSW,202,4.2,8.9,73,0.00,,,0.00,Rainwise IP-100,2013-04-05 09:15:00,
2013-04-05 05:20:00,40.4,32.0,30.00,South,180,4.0,9.1,73,0.00,,,0.00,Rainwise IP-100,2013-04-05 09:20:00,
2013-04-05 05:25:00,40.4,32.0,30.00,SSW,202,2.3,7.2,73,0.00,,,0.00,Rainwise IP-100,2013-04-05 09:25:00,
2013-04-05 05:30:00,40.4,32.0,30.00,WSW,247,3.0,6.3,73,0.00,,,0.00,Rainwise IP-100,2013-04-05 09:30:00,
2013-04-05 05:31:00,40.4,32.0,30.00,SSW,202,3.5,6.3,73,0.00,,,0.00,Rainwise IP-100,2013-04-05 09:31:00,
2013-04-05 05:36:00,40.4,33.0,30.00,SSW,202,4.7,6.8,74,0.00,,,0.00,Rainwise IP-100,2013-04-05 09:36:00,
2013-04-05 05:39:00,40.4,33.0,30.00,SSW,202,3.3,6.8,74,0.00,,,0.00,Rainwise IP-100,2013-04-05 09:39:00,
2013-04-05 05:41:00,40.4,33.0,29.99,SSW,202,4.2,5.8,74,0.00,,,0.00,Rainwise IP-100,2013-04-05 09:41:00,
2013-04-05 05:46:00,40.4,33.0,30.00,SSW,202,5.6,7.0,74,0.00,,,0.00,Rainwise IP-100,2013-04-05 09:46:00,
2013-04-05 05:51:00,40.5,33.0,30.00,SSW,202,5.8,7.0,74,0.00,,,0.00,Rainwise IP-100,2013-04-05 09:51:00,
2013-04-05 05:56:00,40.5,33.0,30.00,South,180,5.1,7.2,73,0.00,,,0.00,Rainwise IP-100,2013-04-05 09:56:00,
2013-04-05 06:01:00,40.6,33.0,29.99,SSW,202,3.3,7.7,73,0.00,,,0.00,Rainwise IP-100,2013-04-05 10:01:00,
2013-04-05 06:04:00,40.6,33.0,30.00,SSW,202,4.2,7.7,73,0.00,,,0.00,Rainwise IP-100,2013-04-05 10:04:00,
2013-04-05 06:06:00,40.6,33.0,29.99,SSW,202,4.0,7.2,73,0.00,,,0.00,Rainwise IP-100,2013-04-05 10:06:00,
2013-04-05 06:09:00,40.6,33.0,29.98,SW,225,3.0,7.2,74,0.00,,,0.00,Rainwise IP-100,2013-04-05 10:09:00,
2013-04-05 06:14:00,40.7,33.0,29.98,SSW,202,3.0,4.0,73,0.00,,,0.00,Rainwise IP-100,2013-04-05 10:14:00,
2013-04-05 06:19:00,40.7,33.0,29.98,SSW,202,3.0,5.8,73,0.00,,,0.00,Rainwise IP-100,2013-04-05 10:19:00,
2013-04-05 06:22:00,40.7,33.0,29.98,SSW,202,2.6,5.8,73,0.00,,,0.00,Rainwise IP-100,2013-04-05 10:22:00,
2013-04-05 06:27:00,40.7,33.0,29.99,WSW,247,4.4,5.6,73,0.00,,,0.00,Rainwise IP-100,2013-04-05 10:27:00,
2013-04-05 06:29:00,40.7,33.0,29.99,WSW,247,2.3,5.6,73,0.00,,,0.00,Rainwise IP-100,2013-04-05 10:29:00,
2013-04-05 06:34:00,40.8,33.0,29.98,WSW,247,1.9,4.0,74,0.00,,,0.00,Rainwise IP-100,2013-04-05 10:34:00,
2013-04-05 06:39:00,40.8,33.0,29.98,South,180,3.7,3.7,74,0.00,,,0.00,Rainwise IP-100,2013-04-05 10:39:00,
2013-04-05 06:44:00,40.7,33.0,29.98,SSW,202,4.0,5.6,74,0.00,,,0.00,Rainwise IP-100,2013-04-05 10:44:00,
2013-04-05 06:46:00,40.7,35.0,29.98,SSW,202,3.7,5.8,75,0.00,,,0.00,Rainwise IP-100,2013-04-05 10:46:00,
2013-04-05 06:49:00,40.7,35.0,29.98,SSW,202,3.5,5.8,75,0.00,,,0.00,Rainwise IP-100,2013-04-05 10:49:00,
2013-04-05 06:54:00,40.7,33.0,29.98,SSW,202,3.3,4.4,74,0.00,,,0.00,Rainwise IP-100,2013-04-05 10:54:00,
2013-04-05 06:56:00,40.7,33.0,29.98,SSW,202,1.4,4.0,74,0.00,,,0.00,Rainwise IP-100,2013-04-05 10:56:00,
2013-04-05 07:01:00,40.8,33.0,29.98,SSW,202,3.0,3.3,74,0.00,,,0.00,Rainwise IP-100,2013-04-05 11:01:00,
2013-04-05 07:04:00,40.8,33.0,29.98,South,180,4.9,4.9,74,0.00,,,0.00,Rainwise IP-100,2013-04-05 11:04:00,
2013-04-05 07:09:00,40.7,33.0,29.98,South,180,6.5,7.5,74,0.00,,,0.00,Rainwise IP-100,2013-04-05 11:09:00,
2013-04-05 07:11:00,40.7,35.0,29.98,South,180,5.6,7.9,75,0.00,,,0.00,Rainwise IP-100,2013-04-05 11:11:00,
2013-04-05 07:14:00,40.7,35.0,29.98,SSW,202,6.1,7.9,76,0.00,,,0.00,Rainwise IP-100,2013-04-05 11:14:00,
2013-04-05 07:16:00,40.7,35.0,29.98,SSW,202,3.0,6.5,77,0.00,,,0.00,Rainwise IP-100,2013-04-05 11:16:00,
2013-04-05 07:19:00,40.7,35.0,29.98,SSW,202,0.0,6.5,77,0.00,,,0.00,Rainwise IP-100,2013-04-05 11:19:00,
2013-04-05 07:24:00,40.7,35.0,29.97,South,180,2.8,4.2,77,0.00,,,0.00,Rainwise IP-100,2013-04-05 11:24:00,
2013-04-05 07:25:00,40.7,35.0,29.97,South,180,3.0,4.2,77,0.00,,,0.00,Rainwise IP-100,2013-04-05 11:25:00,
2013-04-05 07:29:00,40.7,35.0,29.98,WSW,247,1.4,4.2,77,0.00,,,0.00,Rainwise IP-100,2013-04-05 11:29:00,
2013-04-05 07:32:00,40.8,35.0,29.98,SW,225,4.2,4.2,77,0.00,,,0.00,Rainwise IP-100,2013-04-05 11:32:00,
2013-04-05 07:34:00,40.7,35.0,29.97,SSW,202,0.0,5.4,77,0.00,,,0.00,Rainwise IP-100,2013-04-05 11:34:00,
2013-04-05 07:36:00,40.7,35.0,29.97,SSW,202,1.9,5.4,77,0.00,,,0.00,Rainwise IP-100,2013-04-05 11:36:00,
2013-04-05 07:41:00,40.8,35.0,29.97,SSW,202,1.4,3.7,76,0.00,,,0.00,Rainwise IP-100,2013-04-05 11:41:00,
2013-04-05 07:44:00,40.8,35.0,29.97,SW,225,1.6,4.0,76,0.00,,,0.00,Rainwise IP-100,2013-04-05 11:44:00,
2013-04-05 07:46:00,40.8,35.0,29.97,SSW,202,3.7,4.2,76,0.00,,,0.00,Rainwise IP-100,2013-04-05 11:46:00,
2013-04-05 07:51:00,40.8,35.0,29.96,SSW,202,4.2,4.7,76,0.00,,,0.00,Rainwise IP-100,2013-04-05 11:51:00,
2013-04-05 07:54:00,40.8,35.0,29.97,SSW,202,5.1,5.6,76,0.00,,,0.00,Rainwise IP-100,2013-04-05 11:54:00,
2013-04-05 07:59:00,40.8,35.0,29.97,SSW,202,2.6,5.6,77,0.00,,,0.00,Rainwise IP-100,2013-04-05 11:59:00,
2013-04-05 08:04:00,40.8,35.0,29.96,WSW,247,3.3,3.5,77,0.00,,,0.00,Rainwise IP-100,2013-04-05 12:04:00,
2013-04-05 08:06:00,40.8,35.0,29.96,WSW,247,2.3,5.6,77,0.00,,,0.00,Rainwise IP-100,2013-04-05 12:06:00,
2013-04-05 08:11:00,40.9,35.0,29.96,WSW,247,3.0,3.7,77,0.00,,,0.00,Rainwise IP-100,2013-04-05 12:11:00,
2013-04-05 08:14:00,40.9,35.0,29.96,WSW,247,1.9,3.7,77,0.00,,,0.00,Rainwise IP-100,2013-04-05 12:14:00,
2013-04-05 08:16:00,41.0,35.0,29.95,SSW,202,4.2,4.2,76,0.00,,,0.00,Rainwise IP-100,2013-04-05 12:16:00,
2013-04-05 08:19:00,41.0,35.0,29.95,SSW,202,2.3,5.1,76,0.00,,,0.00,Rainwise IP-100,2013-04-05 12:19:00,
2013-04-05 08:22:00,41.1,35.0,29.95,SSW,202,4.0,4.9,76,0.00,,,0.00,Rainwise IP-100,2013-04-05 12:22:00,
2013-04-05 08:24:00,41.1,35.0,29.95,South,180,3.7,5.8,76,0.00,,,0.00,Rainwise IP-100,2013-04-05 12:24:00,
2013-04-05 08:26:00,41.1,35.0,29.95,South,180,3.3,5.8,76,0.00,,,0.00,Rainwise IP-100,2013-04-05 12:26:00,
2013-04-05 08:32:00,41.2,35.0,29.95,SSW,202,2.3,5.1,75,0.00,,,0.00,Rainwise IP-100,2013-04-05 12:32:00,
2013-04-05 08:37:00,41.3,35.0,29.95,South,180,2.1,3.0,75,0.00,,,0.00,Rainwise IP-100,2013-04-05 12:37:00,
2013-04-05 08:42:00,41.5,35.0,29.95,South,180,2.6,4.0,75,0.00,,,0.00,Rainwise IP-100,2013-04-05 12:42:00,
2013-04-05 08:47:00,41.7,35.0,29.95,SSW,202,5.1,5.1,74,0.00,,,0.00,Rainwise IP-100,2013-04-05 12:47:00,
2013-04-05 08:51:00,41.8,35.0,29.95,SSW,202,5.4,5.8,74,0.00,,,0.00,Rainwise IP-100,2013-04-05 12:51:00,
2013-04-05 08:54:00,41.8,35.0,29.95,SSE,157,5.6,5.6,74,0.00,,,0.00,Rainwise IP-100,2013-04-05 12:54:00,
2013-04-05 08:59:00,41.9,35.0,29.95,South,180,5.6,7.5,74,0.00,,,0.00,Rainwise IP-100,2013-04-05 12:59:00,
2013-04-05 09:01:00,41.9,35.0,29.95,South,180,7.2,8.4,74,0.00,,,0.00,Rainwise IP-100,2013-04-05 13:01:00,
2013-04-05 09:04:00,41.8,35.0,29.95,South,180,5.8,9.1,75,0.00,,,0.00,Rainwise IP-100,2013-04-05 13:04:00,
2013-04-05 09:06:00,41.8,35.0,29.94,SSE,157,5.4,9.1,75,0.00,,,0.00,Rainwise IP-100,2013-04-05 13:06:00,
2013-04-05 09:09:00,41.7,35.0,29.95,South,180,5.6,6.8,75,0.00,,,0.00,Rainwise IP-100,2013-04-05 13:09:00,
2013-04-05 09:14:00,41.6,36.0,29.94,South,180,6.3,8.2,77,0.00,,,0.00,Rainwise IP-100,2013-04-05 13:14:00,
2013-04-05 09:19:00,41.4,35.0,29.93,SSE,157,4.4,6.5,77,0.00,,,0.00,Rainwise IP-100,2013-04-05 13:19:00,
2013-04-05 09:24:00,41.2,35.0,29.93,SSE,157,4.9,4.9,78,0.00,,,0.00,Rainwise IP-100,2013-04-05 13:24:00,
2013-04-05 09:29:00,41.3,36.0,29.93,SSW,202,4.0,5.6,79,0.00,,,0.00,Rainwise IP-100,2013-04-05 13:29:00,
2013-04-05 09:34:00,41.7,36.0,29.92,SSW,202,3.7,4.7,78,0.00,,,0.00,Rainwise IP-100,2013-04-05 13:34:00,
2013-04-05 09:39:00,42.0,36.0,29.92,SSE,157,3.7,7.2,77,0.00,,,0.00,Rainwise IP-100,2013-04-05 13:39:00,
2013-04-05 09:41:00,42.0,36.0,29.92,SSE,157,5.4,5.4,77,0.00,,,0.00,Rainwise IP-100,2013-04-05 13:41:00,
2013-04-05 09:44:00,42.0,36.0,29.92,SSE,157,5.8,6.3,77,0.00,,,0.00,Rainwise IP-100,2013-04-05 13:44:00,
2013-04-05 09:46:00,41.9,36.0,29.92,SSE,157,4.9,6.3,77,0.00,,,0.00,Rainwise IP-100,2013-04-05 13:46:00,
2013-04-05 09:49:00,41.9,36.0,29.92,SSE,157,4.9,6.1,77,0.00,,,0.00,Rainwise IP-100,2013-04-05 13:49:00,
2013-04-05 09:54:00,41.7,36.0,29.92,SE,135,4.0,5.1,78,0.00,,,0.00,Rainwise IP-100,2013-04-05 13:54:00,
2013-04-05 09:56:00,41.6,36.0,29.92,SE,135,3.5,5.1,78,0.00,,,0.00,Rainwise IP-100,2013-04-05 13:56:00,
2013-04-05 10:01:00,41.4,35.0,29.91,SE,135,3.3,4.2,78,0.00,,,0.00,Rainwise IP-100,2013-04-05 14:01:00,
2013-04-05 10:06:00,41.8,36.0,29.91,SSE,157,4.4,5.4,78,0.00,,,0.00,Rainwise IP-100,2013-04-05 14:06:00,
2013-04-05 10:11:00,42.1,36.0,29.91,SSE,157,5.4,6.1,77,0.00,,,0.00,Rainwise IP-100,2013-04-05 14:11:00,
2013-04-05 10:14:00,42.2,36.0,29.91,SSE,157,6.5,6.8,77,0.00,,,0.00,Rainwise IP-100,2013-04-05 14:14:00,
2013-04-05 10:16:00,42.1,36.0,29.91,SE,135,4.9,6.8,77,0.00,,,0.00,Rainwise IP-100,2013-04-05 14:16:00,
2013-04-05 10:17:00,42.1,36.0,29.91,SE,135,3.7,6.8,77,0.00,,,0.00,Rainwise IP-100,2013-04-05 14:17:00,
2013-04-05 10:22:00,42.0,36.0,29.91,SSE,157,6.8,6.8,77,0.00,,,0.00,Rainwise IP-100,2013-04-05 14:22:00,
2013-04-05 10:24:00,42.0,36.0,29.90,SSE,157,4.0,7.2,77,0.00,,,0.00,Rainwise IP-100,2013-04-05 14:24:00,
2013-04-05 10:29:00,41.9,36.0,29.90,SE,135,6.1,7.5,78,0.00,,,0.00,Rainwise IP-100,2013-04-05 14:29:00,
2013-04-05 10:32:00,41.8,36.0,29.90,SSE,157,5.4,7.0,78,0.00,,,0.00,Rainwise IP-100,2013-04-05 14:32:00,
2013-04-05 10:37:00,41.8,36.0,29.90,SSE,157,7.0,7.7,78,0.00,,,0.00,Rainwise IP-100,2013-04-05 14:37:00,
2013-04-05 10:39:00,41.8,36.0,29.90,SSE,157,8.2,8.2,78,0.00,,,0.00,Rainwise IP-100,2013-04-05 14:39:00,
2013-04-05 10:42:00,41.9,36.0,29.90,SSE,157,7.7,8.4,78,0.00,,,0.00,Rainwise IP-100,2013-04-05 14:42:00,
2013-04-05 10:47:00,42.0,36.0,29.90,SSE,157,5.4,8.4,78,0.00,,,0.00,Rainwise IP-100,2013-04-05 14:47:00,
2013-04-05 10:51:00,42.4,36.0,29.89,SSE,157,7.0,7.5,77,0.00,,,0.00,Rainwise IP-100,2013-04-05 14:51:00,
2013-04-05 10:56:00,42.8,37.0,29.90,SSE,157,7.7,8.2,77,0.00,,,0.00,Rainwise IP-100,2013-04-05 14:56:00,
2013-04-05 10:59:00,43.0,36.0,29.89,SSE,157,7.9,8.2,76,0.00,,,0.00,Rainwise IP-100,2013-04-05 14:59:00,
2013-04-05 11:01:00,42.9,36.0,29.89,SSE,157,7.9,8.2,76,0.00,,,0.00,Rainwise IP-100,2013-04-05 15:01:00,
2013-04-05 11:03:00,43.1,36.0,29.89,SSE,157,8.9,9.3,75,0.00,,,0.00,Rainwise IP-100,2013-04-05 15:03:00,
2013-04-05 11:06:00,43.2,36.0,29.89,South,180,7.9,9.3,74,0.00,,,0.00,Rainwise IP-100,2013-04-05 15:06:00,
2013-04-05 11:09:00,43.4,36.0,29.88,South,180,9.6,10.0,74,0.00,,,0.00,Rainwise IP-100,2013-04-05 15:09:00,
2013-04-05 11:11:00,43.6,36.0,29.88,South,180,10.3,10.3,73,0.00,,,0.00,Rainwise IP-100,2013-04-05 15:11:00,
2013-04-05 11:16:00,43.7,36.0,29.88,South,180,9.8,11.7,73,0.00,,,0.00,Rainwise IP-100,2013-04-05 15:16:00,
2013-04-05 11:21:00,43.5,36.0,29.88,SSE,157,7.9,10.3,73,0.00,,,0.00,Rainwise IP-100,2013-04-05 15:21:00,
2013-04-05 11:26:00,42.8,36.0,29.87,SSE,157,9.6,9.6,75,0.00,,,0.00,Rainwise IP-100,2013-04-05 15:26:00,
2013-04-05 11:29:00,42.5,36.0,29.87,SSE,157,9.1,10.0,75,0.00,,,0.00,Rainwise IP-100,2013-04-05 15:29:00,
2013-04-05 11:31:00,42.4,36.0,29.87,SSE,157,9.3,10.0,76,0.00,,,0.00,Rainwise IP-100,2013-04-05 15:31:00,
2013-04-05 11:36:00,42.8,36.0,29.87,SSE,157,8.9,10.0,75,0.00,,,0.00,Rainwise IP-100,2013-04-05 15:36:00,
2013-04-05 11:39:00,42.8,36.0,29.87,SSE,157,9.1,9.1,76,0.00,,,0.00,Rainwise IP-100,2013-04-05 15:39:00,
2013-04-05 11:41:00,42.7,36.0,29.87,SSE,157,9.8,10.7,76,0.00,,,0.00,Rainwise IP-100,2013-04-05 15:41:00,
2013-04-05 11:46:00,42.9,36.0,29.86,SSE,157,9.3,11.0,76,0.00,,,0.00,Rainwise IP-100,2013-04-05 15:46:00,
2013-04-05 11:51:00,43.3,36.0,29.86,SSE,157,7.9,10.0,76,0.00,,,0.00,Rainwise IP-100,2013-04-05 15:51:00,
2013-04-05 11:54:00,43.2,36.0,29.86,SE,135,7.0,9.6,76,0.00,,,0.00,Rainwise IP-100,2013-04-05 15:54:00,
2013-04-05 11:56:00,43.0,36.0,29.85,SE,135,7.7,8.6,76,0.00,,,0.00,Rainwise IP-100,2013-04-05 15:56:00,
2013-04-05 12:01:00,42.7,36.0,29.85,SSE,157,6.1,9.6,75,0.00,,,0.00,Rainwise IP-100,2013-04-05 16:01:00,
2013-04-05 12:06:00,42.7,36.0,29.85,SE,135,7.2,8.2,75,0.00,,,0.00,Rainwise IP-100,2013-04-05 16:06:00,
2013-04-05 12:09:00,42.6,36.0,29.85,SE,135,7.9,8.2,76,0.00,,,0.00,Rainwise IP-100,2013-04-05 16:09:00,
2013-04-05 12:14:00,42.5,37.0,29.84,SE,135,8.2,9.1,77,0.00,,,0.00,Rainwise IP-100,2013-04-05 16:14:00,
2013-04-05 12:19:00,42.9,36.0,29.84,SSE,157,5.6,8.4,76,0.00,,,0.00,Rainwise IP-100,2013-04-05 16:19:00,
2013-04-05 12:24:00,43.4,36.0,29.84,SSE,157,7.0,7.0,76,0.00,,,0.00,Rainwise IP-100,2013-04-05 16:24:00,
2013-04-05 12:29:00,43.8,37.0,29.84,South,180,6.5,7.2,76,0.00,,,0.00,Rainwise IP-100,2013-04-05 16:29:00,
2013-04-05 12:31:00,44.0,37.0,29.83,SSE,157,7.2,7.5,75,0.00,,,0.00,Rainwise IP-100,2013-04-05 16:31:00,
2013-04-05 12:36:00,44.1,36.0,29.83,SSE,157,8.4,8.4,74,0.00,,,0.00,Rainwise IP-100,2013-04-05 16:36:00,
2013-04-05 12:42:00,44.2,36.0,29.83,SSE,157,9.1,10.5,72,0.00,,,0.00,Rainwise IP-100,2013-04-05 16:42:00,
2013-04-05 12:44:00,44.3,36.0,29.83,SE,135,7.2,10.5,72,0.00,,,0.00,Rainwise IP-100,2013-04-05 16:44:00,
2013-04-05 12:49:00,44.5,36.0,29.82,SSE,157,9.6,9.6,71,0.00,,,0.00,Rainwise IP-100,2013-04-05 16:49:00,
2013-04-05 12:51:00,44.5,36.0,29.82,SSE,157,8.4,10.3,71,0.00,,,0.00,Rainwise IP-100,2013-04-05 16:51:00,
2013-04-05 12:54:00,44.5,36.0,29.82,SSE,157,10.3,10.3,71,0.00,,,0.00,Rainwise IP-100,2013-04-05 16:54:00,
2013-04-05 12:56:00,44.4,36.0,29.81,SSE,157,9.3,10.7,71,0.00,,,0.00,Rainwise IP-100,2013-04-05 16:56:00,
2013-04-05 13:01:00,44.3,35.0,29.81,SSE,157,8.6,10.3,70,0.00,,,0.00,Rainwise IP-100,2013-04-05 17:01:00,
2013-04-05 13:06:00,44.5,36.0,29.81,SSE,157,7.2,9.1,70,0.00,,,0.00,Rainwise IP-100,2013-04-05 17:06:00,
2013-04-05 13:12:00,44.6,36.0,29.80,SSE,157,8.2,9.8,71,0.00,,,0.00,Rainwise IP-100,2013-04-05 17:12:00,
2013-04-05 13:16:00,44.6,37.0,29.79,SSE,157,12.4,12.4,72,0.00,,,0.00,Rainwise IP-100,2013-04-05 17:16:00,
2013-04-05 13:19:00,44.9,36.0,29.79,SSE,157,11.4,14.2,71,0.00,,,0.00,Rainwise IP-100,2013-04-05 17:19:00,
2013-04-05 13:24:00,45.5,36.0,29.79,SSE,157,9.3,14.7,69,0.00,,,0.00,Rainwise IP-100,2013-04-05 17:24:00,
2013-04-05 13:29:00,45.8,36.0,29.79,SSE,157,9.1,13.1,68,0.00,,,0.00,Rainwise IP-100,2013-04-05 17:29:00,
2013-04-05 13:30:00,45.7,36.0,29.79,SSE,157,10.7,13.1,68,0.00,,,0.00,Rainwise IP-100,2013-04-05 17:30:00,
2013-04-05 13:31:00,45.7,36.0,29.78,SSE,157,8.4,11.9,68,0.00,,,0.00,Rainwise IP-100,2013-04-05 17:31:00,
2013-04-05 13:32:00,45.7,36.0,29.78,SSE,157,9.3,11.9,68,0.00,,,0.00,Rainwise IP-100,2013-04-05 17:32:00,
2013-04-05 13:37:00,45.6,36.0,29.78,SSE,157,6.8,11.2,69,0.00,,,0.00,Rainwise IP-100,2013-04-05 17:37:00,
2013-04-05 13:41:00,45.8,36.0,29.77,SSW,202,14.5,17.5,69,0.00,,,0.00,Rainwise IP-100,2013-04-05 17:41:00,
2013-04-05 13:44:00,46.3,35.0,29.77,SSE,157,5.1,19.4,66,0.00,,,0.00,Rainwise IP-100,2013-04-05 17:44:00,
2013-04-05 13:49:00,47.2,35.0,29.77,South,180,6.5,13.1,61,0.00,,,0.00,Rainwise IP-100,2013-04-05 17:49:00,
2013-04-05 13:54:00,47.2,35.0,29.77,SE,135,6.8,9.6,62,0.00,,,0.00,Rainwise IP-100,2013-04-05 17:54:00,
2013-04-05 13:56:00,47.1,35.0,29.76,SSE,157,9.6,9.6,63,0.00,,,0.00,Rainwise IP-100,2013-04-05 17:56:00,
2013-04-05 14:01:00,47.3,36.0,29.77,SSE,157,10.3,12.6,63,0.00,,,0.00,Rainwise IP-100,2013-04-05 18:01:00,
2013-04-05 14:04:00,47.5,35.0,29.77,SSE,157,7.2,12.6,62,0.00,,,0.00,Rainwise IP-100,2013-04-05 18:04:00,
2013-04-05 14:09:00,47.7,35.0,29.76,SE,135,11.0,13.3,61,0.00,,,0.00,Rainwise IP-100,2013-04-05 18:09:00,
2013-04-05 14:11:00,47.9,35.0,29.76,SSW,202,8.6,14.0,60,0.00,,,0.00,Rainwise IP-100,2013-04-05 18:11:00,
2013-04-05 14:16:00,50.0,33.0,29.76,WNW,292,12.4,13.5,53,0.00,,,0.00,Rainwise IP-100,2013-04-05 18:16:00,
2013-04-05 14:22:00,53.9,31.0,29.75,NNW,337,15.4,16.3,40,0.00,,,0.00,Rainwise IP-100,2013-04-05 18:22:00,
2013-04-05 14:27:00,57.1,26.0,29.76,WNW,292,13.8,18.4,30,0.00,,,0.00,Rainwise IP-100,2013-04-05 18:27:00,
2013-04-05 14:32:00,58.1,24.0,29.75,NNW,337,10.0,14.9,27,0.00,,,0.00,Rainwise IP-100,2013-04-05 18:32:00,
2013-04-05 14:34:00,58.4,24.0,29.75,NNW,337,5.6,16.8,26,0.00,,,0.00,Rainwise IP-100,2013-04-05 18:34:00,
2013-04-05 14:39:00,58.5,24.0,29.75,WNW,292,11.0,21.0,25,0.00,,,0.00,Rainwise IP-100,2013-04-05 18:39:00,
2013-04-05 14:41:00,58.5,24.0,29.75,NNW,337,21.0,21.0,25,0.00,,,0.00,Rainwise IP-100,2013-04-05 18:41:00,
2013-04-05 14:46:00,58.3,23.0,29.75,NW,315,17.5,23.3,25,0.00,,,0.00,Rainwise IP-100,2013-04-05 18:46:00,
2013-04-05 14:49:00,58.4,23.0,29.75,WNW,292,13.8,23.3,25,0.00,,,0.00,Rainwise IP-100,2013-04-05 18:49:00,
2013-04-05 14:54:00,58.4,23.0,29.74,NW,315,13.1,19.8,25,0.00,,,0.00,Rainwise IP-100,2013-04-05 18:54:00,
2013-04-05 14:59:00,58.7,24.0,29.74,WNW,292,13.3,20.1,26,0.00,,,0.00,Rainwise IP-100,2013-04-05 18:59:00,
2013-04-05 15:04:00,58.9,24.0,29.75,NNW,337,7.9,18.4,26,0.00,,,0.00,Rainwise IP-100,2013-04-05 19:04:00,
2013-04-05 15:05:00,59.0,24.0,29.74,NNW,337,16.8,17.3,26,0.00,,,0.00,Rainwise IP-100,2013-04-05 19:05:00,
2013-04-05 15:06:00,59.1,24.0,29.74,NNW,337,13.3,20.5,26,0.00,,,0.00,Rainwise IP-100,2013-04-05 19:06:00,
2013-04-05 15:09:00,59.1,24.0,29.74,WNW,292,17.5,21.0,25,0.00,,,0.00,Rainwise IP-100,2013-04-05 19:09:00,
2013-04-05 15:12:00,59.2,24.0,29.74,NW,315,12.1,21.0,25,0.00,,,0.00,Rainwise IP-100,2013-04-05 19:12:00,
2013-04-05 15:14:00,59.2,24.0,29.74,NNW,337,7.9,17.0,25,0.00,,,0.00,Rainwise IP-100,2013-04-05 19:14:00,
2013-04-05 15:19:00,59.4,24.0,29.74,NW,315,13.1,24.7,25,0.00,,,0.00,Rainwise IP-100,2013-04-05 19:19:00,
2013-04-05 15:24:00,59.4,24.0,29.73,WNW,292,19.1,24.9,26,0.00,,,0.00,Rainwise IP-100,2013-04-05 19:24:00,
2013-04-05 15:26:00,59.3,24.0,29.73,NNW,337,22.6,29.4,25,0.00,,,0.00,Rainwise IP-100,2013-04-05 19:26:00,
2013-04-05 15:31:00,59.1,24.0,29.72,NNW,337,18.0,29.8,26,0.00,,,0.00,Rainwise IP-100,2013-04-05 19:31:00,
2013-04-05 15:36:00,59.0,24.0,29.73,WNW,292,26.3,30.8,26,0.00,,,0.00,Rainwise IP-100,2013-04-05 19:36:00,
2013-04-05 15:42:00,58.9,24.0,29.73,West,270,20.1,30.1,26,0.00,,,0.00,Rainwise IP-100,2013-04-05 19:42:00,
2013-04-05 15:47:00,59.0,24.0,29.73,WNW,292,13.8,30.5,25,0.00,,,0.00,Rainwise IP-100,2013-04-05 19:47:00,
2013-04-05 15:51:00,59.1,24.0,29.73,NW,315,20.5,28.2,25,0.00,,,0.00,Rainwise IP-100,2013-04-05 19:51:00,
2013-04-05 15:56:00,59.2,24.0,29.73,WNW,292,24.9,25.9,26,0.00,,,0.00,Rainwise IP-100,2013-04-05 19:56:00,
2013-04-05 16:01:00,59.3,24.0,29.72,WNW,292,26.6,26.6,25,0.00,,,0.00,Rainwise IP-100,2013-04-05 20:01:00,
2013-04-05 16:07:00,59.4,24.0,29.72,NW,315,24.7,28.4,25,0.00,,,0.00,Rainwise IP-100,2013-04-05 20:07:00,
2013-04-05 16:08:00,59.3,24.0,29.71,WNW,292,30.1,30.1,25,0.00,,,0.00,Rainwise IP-100,2013-04-05 20:08:00,
2013-04-05 16:09:00,59.3,24.0,29.71,WNW,292,22.4,29.6,25,0.00,,,0.00,Rainwise IP-100,2013-04-05 20:09:00,
2013-04-05 16:14:00,59.3,24.0,29.72,WNW,292,24.7,30.8,25,0.00,,,0.00,Rainwise IP-100,2013-04-05 20:14:00,
2013-04-05 16:19:00,59.3,24.0,29.73,WNW,292,15.6,32.4,25,0.00,,,0.00,Rainwise IP-100,2013-04-05 20:19:00,
2013-04-05 16:21:00,59.3,24.0,29.73,NW,315,23.3,31.9,25,0.00,,,0.00,Rainwise IP-100,2013-04-05 20:21:00,
2013-04-05 16:26:00,59.3,24.0,29.72,NW,315,25.4,31.0,25,0.00,,,0.00,Rainwise IP-100,2013-04-05 20:26:00,
2013-04-05 16:31:00,59.1,24.0,29.73,WNW,292,19.1,32.6,25,0.00,,,0.00,Rainwise IP-100,2013-04-05 20:31:00,
2013-04-05 16:34:00,59.1,24.0,29.73,WNW,292,25.6,29.6,25,0.00,,,0.00,Rainwise IP-100,2013-04-05 20:34:00,
2013-04-05 16:36:00,59.0,24.0,29.72,NW,315,15.2,30.5,25,0.00,,,0.00,Rainwise IP-100,2013-04-05 20:36:00,
2013-04-05 16:37:00,59.0,24.0,29.72,NW,315,19.1,30.5,25,0.00,,,0.00,Rainwise IP-100,2013-04-05 20:37:00,
2013-04-05 16:39:00,59.1,24.0,29.71,NW,315,26.8,30.5,25,0.00,,,0.00,Rainwise IP-100,2013-04-05 20:39:00,
2013-04-05 16:42:00,59.1,24.0,29.73,WNW,292,19.6,31.7,25,0.00,,,0.00,Rainwise IP-100,2013-04-05 20:42:00,
2013-04-05 16:44:00,59.1,24.0,29.73,WNW,292,12.8,31.7,25,0.00,,,0.00,Rainwise IP-100,2013-04-05 20:44:00,
2013-04-05 16:47:00,59.2,24.0,29.73,NW,315,22.2,33.1,25,0.00,,,0.00,Rainwise IP-100,2013-04-05 20:47:00,
2013-04-05 16:51:00,59.2,24.0,29.73,NW,315,18.9,34.5,25,0.00,,,0.00,Rainwise IP-100,2013-04-05 20:51:00,
2013-04-05 16:56:00,59.0,24.0,29.73,NW,315,14.9,28.4,25,0.00,,,0.00,Rainwise IP-100,2013-04-05 20:56:00,
2013-04-05 16:59:00,59.0,24.0,29.74,WNW,292,21.0,27.7,25,0.00,,,0.00,Rainwise IP-100,2013-04-05 20:59:00,
2013-04-05 17:04:00,59.0,24.0,29.74,WNW,292,22.2,31.5,25,0.00,,,0.00,Rainwise IP-100,2013-04-05 21:04:00,
2013-04-05 17:06:00,59.0,24.0,29.74,WNW,292,17.0,31.5,25,0.00,,,0.00,Rainwise IP-100,2013-04-05 21:06:00,
2013-04-05 17:11:00,59.0,24.0,29.74,WNW,292,23.1,24.9,25,0.00,,,0.00,Rainwise IP-100,2013-04-05 21:11:00,
2013-04-05 17:16:00,58.9,24.0,29.74,WNW,292,24.7,32.9,25,0.00,,,0.00,Rainwise IP-100,2013-04-05 21:16:00,
2013-04-05 17:19:00,58.9,24.0,29.75,NNW,337,13.3,32.9,25,0.00,,,0.00,Rainwise IP-100,2013-04-05 21:19:00,
2013-04-05 17:24:00,58.8,24.0,29.75,WNW,292,22.9,27.3,25,0.00,,,0.00,Rainwise IP-100,2013-04-05 21:24:00,
2013-04-05 17:26:00,58.8,24.0,29.75,WNW,292,18.7,28.7,25,0.00,,,0.00,Rainwise IP-100,2013-04-05 21:26:00,
2013-04-05 17:31:00,58.7,23.0,29.75,WNW,292,21.7,28.9,24,0.00,,,0.00,Rainwise IP-100,2013-04-05 21:31:00,
2013-04-05 17:36:00,58.7,23.0,29.75,WNW,292,17.0,28.9,23,0.00,,,0.00,Rainwise IP-100,2013-04-05 21:36:00,
2013-04-05 17:42:00,58.6,21.0,29.76,NNW,337,21.0,28.7,22,0.00,,,0.00,Rainwise IP-100,2013-04-05 21:42:00,
2013-04-05 17:46:00,58.6,21.0,29.76,NW,315,19.1,27.5,21,0.00,,,0.00,Rainwise IP-100,2013-04-05 21:46:00,
2013-04-05 17:51:00,58.6,21.0,29.77,NNW,337,17.5,26.6,21,0.00,,,0.00,Rainwise IP-100,2013-04-05 21:51:00,
2013-04-05 17:54:00,58.6,21.0,29.78,NNW,337,15.4,24.7,21,0.00,,,0.00,Rainwise IP-100,2013-04-05 21:54:00,
2013-04-05 17:59:00,58.5,21.0,29.78,NW,315,15.4,30.1,22,0.00,,,0.00,Rainwise IP-100,2013-04-05 21:59:00,
2013-04-05 18:01:00,58.5,21.0,29.77,WNW,292,25.2,29.6,21,0.00,,,0.00,Rainwise IP-100,2013-04-05 22:01:00,
2013-04-05 18:04:00,58.4,18.0,29.78,NW,315,23.3,29.6,21,0.00,,,0.00,Rainwise IP-100,2013-04-05 22:04:00,
2013-04-05 18:06:00,58.3,18.0,29.78,NW,315,19.1,27.5,21,0.00,,,0.00,Rainwise IP-100,2013-04-05 22:06:00,
2013-04-05 18:07:00,58.3,18.0,29.78,NW,315,18.4,27.5,21,0.00,,,0.00,Rainwise IP-100,2013-04-05 22:07:00,
2013-04-05 18:11:00,58.1,18.0,29.80,WNW,292,11.9,22.9,20,0.00,,,0.00,Rainwise IP-100,2013-04-05 22:11:00,
2013-04-05 18:16:00,58.1,18.0,29.80,NNW,337,15.4,18.7,21,0.00,,,0.00,Rainwise IP-100,2013-04-05 22:16:00,
2013-04-05 18:19:00,58.0,18.0,29.79,NNW,337,16.3,25.2,21,0.00,,,0.00,Rainwise IP-100,2013-04-05 22:19:00,
2013-04-05 18:21:00,57.9,18.0,29.81,WNW,292,12.4,25.2,21,0.00,,,0.00,Rainwise IP-100,2013-04-05 22:21:00,
2013-04-05 18:24:00,57.8,18.0,29.80,NNW,337,22.2,22.9,21,0.00,,,0.00,Rainwise IP-100,2013-04-05 22:24:00,
2013-04-05 18:29:00,57.6,18.0,29.81,WNW,292,13.5,25.2,21,0.00,,,0.00,Rainwise IP-100,2013-04-05 22:29:00,
2013-04-05 18:34:00,57.4,18.0,29.81,WNW,292,19.1,26.1,21,0.00,,,0.00,Rainwise IP-100,2013-04-05 22:34:00,
2013-04-05 18:39:00,57.2,18.0,29.81,NW,315,20.1,25.2,22,0.00,,,0.00,Rainwise IP-100,2013-04-05 22:39:00,
2013-04-05 18:41:00,57.1,18.0,29.81,WNW,292,26.1,29.8,22,0.00,,,0.00,Rainwise IP-100,2013-04-05 22:41:00,
2013-04-05 18:46:00,56.9,18.0,29.82,NW,315,17.3,41.3,22,0.00,,,0.00,Rainwise IP-100,2013-04-05 22:46:00,
2013-04-05 18:51:00,56.5,18.0,29.82,WNW,292,21.2,30.5,22,0.00,,,0.00,Rainwise IP-100,2013-04-05 22:51:00,
2013-04-05 18:54:00,56.5,21.0,29.83,WNW,292,23.3,30.5,23,0.00,,,0.00,Rainwise IP-100,2013-04-05 22:54:00,
2013-04-05 18:56:00,56.3,21.0,29.81,WNW,292,27.3,31.2,23,0.00,,,0.00,Rainwise IP-100,2013-04-05 22:56:00,
2013-04-05 18:59:00,56.2,18.0,29.82,NW,315,11.9,32.4,23,0.00,,,0.00,Rainwise IP-100,2013-04-05 22:59:00,
2013-04-05 19:01:00,56.0,18.0,29.81,WNW,292,25.2,33.6,23,0.00,,,0.00,Rainwise IP-100,2013-04-05 23:01:00,
2013-04-05 19:07:00,55.6,18.0,29.83,WNW,292,20.8,32.2,22,0.00,,,0.00,Rainwise IP-100,2013-04-05 23:07:00,
2013-04-05 19:09:00,55.5,18.0,29.83,NW,315,24.0,31.0,22,0.00,,,0.00,Rainwise IP-100,2013-04-05 23:09:00,
2013-04-05 19:11:00,55.4,18.0,29.83,NW,315,19.8,33.1,22,0.00,,,0.00,Rainwise IP-100,2013-04-05 23:11:00,
2013-04-05 19:14:00,55.2,18.0,29.83,NW,315,19.4,33.1,23,0.00,,,0.00,Rainwise IP-100,2013-04-05 23:14:00,
2013-04-05 19:16:00,55.1,18.0,29.83,NW,315,20.8,29.1,23,0.00,,,0.00,Rainwise IP-100,2013-04-05 23:16:00,
2013-04-05 19:21:00,54.7,18.0,29.84,NW,315,17.5,22.9,23,0.00,,,0.00,Rainwise IP-100,2013-04-05 23:21:00,
2013-04-05 19:24:00,54.6,18.0,29.84,WNW,292,17.5,23.3,24,0.00,,,0.00,Rainwise IP-100,2013-04-05 23:24:00,
2013-04-05 19:29:00,54.5,18.0,29.83,NW,315,14.9,25.9,24,0.00,,,0.00,Rainwise IP-100,2013-04-05 23:29:00,
2013-04-05 19:34:00,54.3,18.0,29.84,WNW,292,19.6,28.0,24,0.00,,,0.00,Rainwise IP-100,2013-04-05 23:34:00,
2013-04-05 19:39:00,54.0,18.0,29.85,NW,315,26.3,30.1,23,0.00,,,0.00,Rainwise IP-100,2013-04-05 23:39:00,
2013-04-05 19:41:00,53.9,18.0,29.84,NNW,337,20.5,30.8,23,0.00,,,0.00,Rainwise IP-100,2013-04-05 23:41:00,
2013-04-05 19:46:00,53.7,16.0,29.86,NW,315,13.1,28.4,22,0.00,,,0.00,Rainwise IP-100,2013-04-05 23:46:00,
2013-04-05 19:48:00,53.6,16.0,29.85,NW,315,26.1,29.1,22,0.00,,,0.00,Rainwise IP-100,2013-04-05 23:48:00,
2013-04-05 19:51:00,53.5,16.0,29.86,NNW,337,12.6,30.8,22,0.00,,,0.00,Rainwise IP-100,2013-04-05 23:51:00,
2013-04-05 19:54:00,53.4,16.0,29.87,NNW,337,17.3,28.4,21,0.00,,,0.00,Rainwise IP-100,2013-04-05 23:54:00,
2013-04-05 19:59:00,53.2,14.0,29.87,NW,315,19.8,28.7,21,0.00,,,0.00,Rainwise IP-100,2013-04-05 23:59:00,
2013-04-05 20:04:00,53.0,14.0,29.87,NNW,337,17.5,24.9,21,0.00,,,0.00,Rainwise IP-100,2013-04-06 00:04:00,
2013-04-05 20:06:00,52.9,16.0,29.87,NNW,337,17.0,28.7,22,0.00,,,0.00,Rainwise IP-100,2013-04-06 00:06:00,
2013-04-05 20:09:00,52.8,16.0,29.87,NNW,337,17.0,28.7,22,0.00,,,0.00,Rainwise IP-100,2013-04-06 00:09:00,
2013-04-05 20:11:00,52.6,16.0,29.88,NW,315,14.7,25.2,23,0.00,,,0.00,Rainwise IP-100,2013-04-06 00:11:00,
2013-04-05 20:13:00,52.6,16.0,29.88,NNW,337,20.8,24.9,23,0.00,,,0.00,Rainwise IP-100,2013-04-06 00:13:00,
2013-04-05 20:14:00,52.5,16.0,29.88,NNW,337,16.1,23.3,23,0.00,,,0.00,Rainwise IP-100,2013-04-06 00:14:00,
2013-04-05 20:16:00,52.4,16.0,29.88,NNW,337,13.8,23.3,23,0.00,,,0.00,Rainwise IP-100,2013-04-06 00:16:00,
2013-04-05 20:18:00,52.3,16.0,29.89,NNW,337,14.7,22.9,24,0.00,,,0.00,Rainwise IP-100,2013-04-06 00:18:00,
2013-04-05 20:21:00,52.2,16.0,29.88,NNW,337,12.1,24.2,24,0.00,,,0.00,Rainwise IP-100,2013-04-06 00:21:00,
2013-04-05 20:26:00,52.0,16.0,29.89,NNW,337,12.6,21.9,24,0.00,,,0.00,Rainwise IP-100,2013-04-06 00:26:00,
2013-04-05 20:31:00,51.8,18.0,29.90,NNW,337,14.2,18.2,25,0.00,,,0.00,Rainwise IP-100,2013-04-06 00:31:00,
2013-04-05 20:36:00,51.6,18.0,29.90,NNW,337,18.0,21.2,25,0.00,,,0.00,Rainwise IP-100,2013-04-06 00:36:00,
2013-04-05 20:39:00,51.5,18.0,29.89,NW,315,14.0,25.4,25,0.00,,,0.00,Rainwise IP-100,2013-04-06 00:39:00,
2013-04-05 20:41:00,51.4,18.0,29.90,NNW,337,20.5,25.4,25,0.00,,,0.00,Rainwise IP-100,2013-04-06 00:41:00,
2013-04-05 20:44:00,51.3,18.0,29.90,NNW,337,17.3,24.9,25,0.00,,,0.00,Rainwise IP-100,2013-04-06 00:44:00,
2013-04-05 20:46:00,51.3,18.0,29.90,NNW,337,15.9,24.9,25,0.00,,,0.00,Rainwise IP-100,2013-04-06 00:46:00,
2013-04-05 20:47:00,51.3,18.0,29.90,NW,315,15.9,24.9,25,0.00,,,0.00,Rainwise IP-100,2013-04-06 00:47:00,
2013-04-05 20:51:00,51.1,18.0,29.92,NNW,337,15.2,23.8,25,0.00,,,0.00,Rainwise IP-100,2013-04-06 00:51:00,
2013-04-05 20:52:00,51.1,18.0,29.92,NNW,337,12.4,23.8,25,0.00,,,0.00,Rainwise IP-100,2013-04-06 00:52:00,
2013-04-05 20:54:00,50.9,18.0,29.91,NNW,337,16.8,20.5,25,0.00,,,0.00,Rainwise IP-100,2013-04-06 00:54:00,
2013-04-05 20:57:00,50.8,18.0,29.90,WNW,292,25.6,26.6,25,0.00,,,0.00,Rainwise IP-100,2013-04-06 00:57:00,
2013-04-05 21:01:00,50.6,16.0,29.91,NW,315,18.2,30.3,25,0.00,,,0.00,Rainwise IP-100,2013-04-06 01:01:00,
2013-04-05 21:04:00,50.6,16.0,29.91,NNW,337,14.7,23.8,24,0.00,,,0.00,Rainwise IP-100,2013-04-06 01:04:00,
2013-04-05 21:08:00,50.4,16.0,29.92,NNW,337,13.3,22.6,25,0.00,,,0.00,Rainwise IP-100,2013-04-06 01:08:00,
2013-04-05 21:13:00,50.1,16.0,29.92,NW,315,18.9,23.3,26,0.00,,,0.00,Rainwise IP-100,2013-04-06 01:13:00,
2013-04-05 21:16:00,49.9,16.0,29.93,NNW,337,11.0,26.6,26,0.00,,,0.00,Rainwise IP-100,2013-04-06 01:16:00,
2013-04-05 21:19:00,49.8,18.0,29.93,North,360,12.6,26.6,27,0.00,,,0.00,Rainwise IP-100,2013-04-06 01:19:00,
2013-04-05 21:20:00,49.8,18.0,29.93,NNW,337,21.0,24.9,27,0.00,,,0.00,Rainwise IP-100,2013-04-06 01:20:00,
2013-04-05 21:24:00,49.4,18.0,29.93,NNW,337,14.2,31.5,28,0.00,,,0.00,Rainwise IP-100,2013-04-06 01:24:00,
2013-04-05 21:26:00,49.1,18.0,29.94,NW,315,19.4,31.5,29,0.00,,,0.00,Rainwise IP-100,2013-04-06 01:26:00,
2013-04-05 21:27:00,49.1,18.0,29.94,NNW,337,24.9,31.5,29,0.00,,,0.00,Rainwise IP-100,2013-04-06 01:27:00,
2013-04-05 21:31:00,48.8,21.0,29.94,NNW,337,20.5,28.4,30,0.00,,,0.00,Rainwise IP-100,2013-04-06 01:31:00,
2013-04-05 21:32:00,48.8,21.0,29.94,NNW,337,20.3,28.4,30,0.00,,,0.00,Rainwise IP-100,2013-04-06 01:32:00,
2013-04-05 21:36:00,48.4,18.0,29.95,NW,315,11.2,30.3,30,0.00,,,0.00,Rainwise IP-100,2013-04-06 01:36:00,
2013-04-05 21:41:00,48.2,21.0,29.94,NNW,337,14.7,23.3,31,0.00,,,0.00,Rainwise IP-100,2013-04-06 01:41:00,
2013-04-05 21:46:00,48.0,21.0,29.95,NW,315,16.8,28.0,31,0.00,,,0.00,Rainwise IP-100,2013-04-06 01:46:00,
2013-04-05 21:49:00,47.8,21.0,29.93,NNW,337,18.4,28.0,32,0.00,,,0.00,Rainwise IP-100,2013-04-06 01:49:00,
2013-04-05 21:54:00,47.5,21.0,29.94,NW,315,16.3,28.7,32,0.00,,,0.00,Rainwise IP-100,2013-04-06 01:54:00,
2013-04-05 21:56:00,47.4,21.0,29.95,NNW,337,14.9,28.7,32,0.00,,,0.00,Rainwise IP-100,2013-04-06 01:56:00,
2013-04-05 21:59:00,47.3,21.0,29.96,NW,315,10.7,24.2,32,0.00,,,0.00,Rainwise IP-100,2013-04-06 01:59:00,
2013-04-05 22:01:00,47.3,21.0,29.95,WNW,292,27.5,28.9,32,0.00,,,0.00,Rainwise IP-100,2013-04-06 02:01:00,
2013-04-05 22:04:00,47.2,18.0,29.95,NNW,337,22.6,28.9,32,0.00,,,0.00,Rainwise IP-100,2013-04-06 02:04:00,
2013-04-05 22:06:00,47.0,18.0,29.97,WNW,292,14.5,28.9,32,0.00,,,0.00,Rainwise IP-100,2013-04-06 02:06:00,
2013-04-05 22:09:00,46.9,18.0,29.96,NNW,337,16.3,24.9,32,0.00,,,0.00,Rainwise IP-100,2013-04-06 02:09:00,
2013-04-05 22:11:00,46.8,21.0,29.96,NW,315,19.6,26.6,33,0.00,,,0.00,Rainwise IP-100,2013-04-06 02:11:00,
2013-04-05 22:14:00,46.7,21.0,29.96,WNW,292,17.3,26.6,33,0.00,,,0.00,Rainwise IP-100,2013-04-06 02:14:00,
2013-04-05 22:19:00,46.5,21.0,29.96,NNW,337,15.6,25.9,33,0.00,,,0.00,Rainwise IP-100,2013-04-06 02:19:00,
2013-04-05 22:21:00,46.4,18.0,29.97,NNW,337,14.2,25.9,33,0.00,,,0.00,Rainwise IP-100,2013-04-06 02:21:00,
2013-04-05 22:24:00,46.3,18.0,29.96,NW,315,27.5,27.7,33,0.00,,,0.00,Rainwise IP-100,2013-04-06 02:24:00,
2013-04-05 22:26:00,46.1,18.0,29.96,NW,315,20.8,31.5,33,0.00,,,0.00,Rainwise IP-100,2013-04-06 02:26:00,
2013-04-05 22:29:00,46.1,18.0,29.95,NNW,337,16.8,31.5,33,0.00,,,0.00,Rainwise IP-100,2013-04-06 02:29:00,
2013-04-05 22:34:00,45.9,18.0,29.97,NNW,337,25.6,31.0,33,0.00,,,0.00,Rainwise IP-100,2013-04-06 02:34:00,
2013-04-05 22:36:00,45.7,18.0,29.97,NW,315,14.5,30.1,33,0.00,,,0.00,Rainwise IP-100,2013-04-06 02:36:00,
2013-04-05 22:39:00,45.6,18.0,29.98,WNW,292,22.2,27.5,33,0.00,,,0.00,Rainwise IP-100,2013-04-06 02:39:00,
2013-04-05 22:44:00,45.5,18.0,29.97,NNW,337,24.0,27.7,33,0.00,,,0.00,Rainwise IP-100,2013-04-06 02:44:00,
2013-04-05 22:49:00,45.3,18.0,29.98,NNW,337,12.4,25.4,34,0.00,,,0.00,Rainwise IP-100,2013-04-06 02:49:00,
2013-04-05 22:54:00,45.0,18.0,29.98,NW,315,14.7,16.3,34,0.00,,,0.00,Rainwise IP-100,2013-04-06 02:54:00,
2013-04-05 22:56:00,44.9,21.0,29.98,NNW,337,18.9,22.2,35,0.00,,,0.00,Rainwise IP-100,2013-04-06 02:56:00,
2013-04-05 22:59:00,44.8,21.0,29.98,WNW,292,19.6,22.2,35,0.00,,,0.00,Rainwise IP-100,2013-04-06 02:59:00,
2013-04-05 23:01:00,44.7,21.0,29.98,NW,315,20.3,21.9,35,0.00,,,0.00,Rainwise IP-100,2013-04-06 03:01:00,
2013-04-05 23:06:00,44.5,21.0,29.97,WNW,292,26.1,27.7,36,0.00,,,0.00,Rainwise IP-100,2013-04-06 03:06:00,
2013-04-05 23:12:00,44.3,18.0,29.97,NNW,337,18.7,32.2,36,0.00,,,0.00,Rainwise IP-100,2013-04-06 03:12:00,
2013-04-05 23:14:00,44.3,21.0,29.98,WNW,292,17.5,33.3,37,0.00,,,0.00,Rainwise IP-100,2013-04-06 03:14:00,
2013-04-05 23:16:00,44.1,21.0,29.98,NW,315,11.7,33.3,37,0.00,,,0.00,Rainwise IP-100,2013-04-06 03:16:00,
2013-04-05 23:21:00,43.9,21.0,29.98,NNW,337,15.2,23.6,38,0.00,,,0.00,Rainwise IP-100,2013-04-06 03:21:00,
2013-04-05 23:26:00,43.7,21.0,29.99,WNW,292,18.4,20.5,39,0.00,,,0.00,Rainwise IP-100,2013-04-06 03:26:00,
2013-04-05 23:31:00,43.6,21.0,29.98,NNW,337,16.3,25.9,38,0.00,,,0.00,Rainwise IP-100,2013-04-06 03:31:00,
2013-04-05 23:34:00,43.5,21.0,29.99,NW,315,11.0,23.8,38,0.00,,,0.00,Rainwise IP-100,2013-04-06 03:34:00,
2013-04-05 23:39:00,43.3,21.0,30.00,NNW,337,14.7,18.4,38,0.00,,,0.00,Rainwise IP-100,2013-04-06 03:39:00,
2013-04-05 23:44:00,43.1,21.0,30.00,NNW,337,14.7,24.2,38,0.00,,,0.00,Rainwise IP-100,2013-04-06 03:44:00,
2013-04-05 23:46:00,43.0,21.0,30.00,NW,315,13.8,22.6,38,0.00,,,0.00,Rainwise IP-100,2013-04-06 03:46:00,
2013-04-05 23:51:00,42.9,21.0,30.00,NNW,337,11.2,19.1,39,0.00,,,0.00,Rainwise IP-100,2013-04-06 03:51:00,
2013-04-05 23:56:00,42.8,21.0,30.01,NNW,337,19.8,22.6,39,0.00,,,0.00,Rainwise IP-100,2013-04-06 03:56:00,